Time,TemperatureF,DewpointF,PressureIn,WindDirection,WindDirectionDegrees,WindSpeedMPH,WindSpeedGustMPH,Humidity,HourlyPrecipIn,Conditions,Clouds,dailyrainin,SoftwareType,DateUTC
2013-03-12 00:00:00,48.2,26.2,30.05,NW,306,2.0,2.0,42,0.00,,,0.00,Wunderground v.1.15,2013-03-12 04:00:00,
2013-03-12 00:05:00,47.8,24.6,30.05,WNW,303,2.0,3.0,40,0.00,,,0.00,Wunderground v.1.15,2013-03-12 04:05:00,
2013-03-12 00:10:00,48.2,23.7,30.05,WNW,299,2.0,3.0,38,0.00,,,0.00,Wunderground v.1.15,2013-03-12 04:10:00,
2013-03-12 00:15:00,48.4,24.6,30.05,NW,322,2.0,3.0,39,0.00,,,0.00,Wunderground v.1.15,2013-03-12 04:15:00,
2013-03-12 00:20:00,47.8,25.8,30.05,NW,322,2.0,2.0,42,0.00,,,0.00,Wunderground v.1.15,2013-03-12 04:20:00,
2013-03-12 00:25:00,47.3,25.9,30.05,NW,321,2.0,2.0,43,0.00,,,0.00,Wunderground v.1.15,2013-03-12 04:25:00,
2013-03-12 00:30:00,47.1,24.0,30.05,NW,306,2.0,2.0,40,0.00,,,0.00,Wunderground v.1.15,2013-03-12 04:30:00,
2013-03-12 00:35:00,46.6,23.5,30.05,NW,305,1.0,2.0,40,0.00,,,0.00,Wunderground v.1.15,2013-03-12 04:35:00,
2013-03-12 00:40:00,46.3,23.3,30.05,NW,305,0.0,0.0,40,0.00,,,0.00,Wunderground v.1.15,2013-03-12 04:40:00,
2013-03-12 00:45:00,46.5,23.4,30.05,NW,305,0.0,0.0,40,0.00,,,0.00,Wunderground v.1.15,2013-03-12 04:45:00,
2013-03-12 00:50:00,46.7,23.6,30.05,NW,305,0.0,0.0,40,0.00,,,0.00,Wunderground v.1.15,2013-03-12 04:50:00,
2013-03-12 00:55:00,46.4,23.9,30.05,NW,305,0.0,0.0,41,0.00,,,0.00,Wunderground v.1.15,2013-03-12 04:55:00,
2013-03-12 01:00:00,46.1,23.7,30.05,NW,305,0.0,0.0,41,0.00,,,0.00,Wunderground v.1.15,2013-03-12 05:00:00,
2013-03-12 01:10:00,44.3,24.3,30.05,WSW,247,1.0,1.0,45,0.00,,,0.00,Wunderground v.1.15,2013-03-12 05:10:00,
2013-03-12 01:15:00,43.8,24.9,30.05,SW,226,2.0,2.0,47,0.00,,,0.00,Wunderground v.1.15,2013-03-12 05:15:00,
2013-03-12 01:20:00,44.1,25.1,30.05,WSW,241,1.0,2.0,47,0.00,,,0.00,Wunderground v.1.15,2013-03-12 05:20:00,
2013-03-12 01:30:00,44.9,25.3,30.05,SSW,205,1.0,4.0,46,0.00,,,0.00,Wunderground v.1.15,2013-03-12 05:30:00,
2013-03-12 01:35:00,44.2,25.2,30.05,SSW,196,3.0,4.0,47,0.00,,,0.00,Wunderground v.1.15,2013-03-12 05:35:00,
2013-03-12 01:40:00,43.8,25.4,30.05,SSW,196,5.0,5.0,48,0.00,,,0.00,Wunderground v.1.15,2013-03-12 05:40:00,
2013-03-12 01:45:00,43.3,25.4,30.05,SSW,197,4.0,5.0,49,0.00,,,0.00,Wunderground v.1.15,2013-03-12 05:45:00,
2013-03-12 01:50:00,42.0,25.6,30.05,SSW,195,3.0,3.0,52,0.00,,,0.00,Wunderground v.1.15,2013-03-12 05:50:00,
2013-03-12 01:55:00,41.2,25.8,30.05,SSW,194,2.0,3.0,54,0.00,,,0.00,Wunderground v.1.15,2013-03-12 05:55:00,
2013-03-12 02:00:00,40.8,26.3,30.05,SSW,194,2.0,3.0,56,0.00,,,0.00,Wunderground v.1.15,2013-03-12 06:00:00,
2013-03-12 02:10:00,39.5,26.3,30.05,SSW,194,1.0,2.0,59,0.00,,,0.00,Wunderground v.1.15,2013-03-12 06:10:00,
2013-03-12 02:15:00,38.7,26.0,30.05,SSW,192,1.0,2.0,60,0.00,,,0.00,Wunderground v.1.15,2013-03-12 06:15:00,
2013-03-12 02:25:00,38.1,26.6,30.05,South,188,3.0,5.0,63,0.00,,,0.00,Wunderground v.1.15,2013-03-12 06:25:00,
2013-03-12 02:30:00,38.2,26.7,30.05,South,184,2.0,2.0,63,0.00,,,0.00,Wunderground v.1.15,2013-03-12 06:30:00,
2013-03-12 02:35:00,38.0,26.9,30.05,South,183,1.0,2.0,64,0.00,,,0.00,Wunderground v.1.15,2013-03-12 06:35:00,
2013-03-12 02:40:00,37.7,27.0,30.05,South,181,1.0,1.0,65,0.00,,,0.00,Wunderground v.1.15,2013-03-12 06:40:00,
2013-03-12 02:45:00,37.5,26.8,30.05,South,180,0.0,1.0,65,0.00,,,0.00,Wunderground v.1.15,2013-03-12 06:45:00,
2013-03-12 02:50:00,37.3,27.0,30.05,South,180,0.0,2.0,66,0.00,,,0.00,Wunderground v.1.15,2013-03-12 06:50:00,
2013-03-12 02:55:00,37.1,27.2,30.05,South,180,1.0,2.0,67,0.00,,,0.00,Wunderground v.1.15,2013-03-12 06:55:00,
2013-03-12 03:00:00,37.0,27.1,30.05,South,180,1.0,4.0,67,0.00,,,0.00,Wunderground v.1.15,2013-03-12 07:00:00,
2013-03-12 03:10:00,36.9,27.0,30.05,South,182,4.0,5.0,67,0.00,,,0.00,Wunderground v.1.15,2013-03-12 07:10:00,
2013-03-12 03:15:00,36.8,26.5,30.05,South,186,5.0,5.0,66,0.00,,,0.00,Wunderground v.1.15,2013-03-12 07:15:00,
2013-03-12 03:20:00,36.8,26.5,30.05,South,186,4.0,4.0,66,0.00,,,0.00,Wunderground v.1.15,2013-03-12 07:20:00,
2013-03-12 03:30:00,36.7,26.4,30.05,South,187,4.0,4.0,66,0.00,,,0.00,Wunderground v.1.15,2013-03-12 07:30:00,
2013-03-12 03:35:00,36.7,26.4,30.05,South,186,4.0,5.0,66,0.00,,,0.00,Wunderground v.1.15,2013-03-12 07:35:00,
2013-03-12 03:40:00,36.7,26.8,30.05,South,185,4.0,4.0,67,0.00,,,0.00,Wunderground v.1.15,2013-03-12 07:40:00,
2013-03-12 03:45:00,36.6,27.0,30.05,South,184,4.0,4.0,68,0.00,,,0.00,Wunderground v.1.15,2013-03-12 07:45:00,
2013-03-12 03:50:00,36.5,26.9,30.05,South,184,3.0,4.0,68,0.00,,,0.00,Wunderground v.1.15,2013-03-12 07:50:00,
2013-03-12 03:55:00,36.3,27.1,30.05,South,184,2.0,4.0,69,0.00,,,0.00,Wunderground v.1.15,2013-03-12 07:55:00,
2013-03-12 04:00:00,36.1,26.9,30.05,South,184,2.0,3.0,69,0.00,,,0.00,Wunderground v.1.15,2013-03-12 08:00:00,
2013-03-12 04:10:00,35.9,27.1,30.05,South,184,3.0,3.0,70,0.00,,,0.00,Wunderground v.1.15,2013-03-12 08:10:00,
2013-03-12 04:20:00,36.6,26.3,30.05,South,185,0.0,0.0,66,0.00,,,0.00,Wunderground v.1.15,2013-03-12 08:20:00,
2013-03-12 04:25:00,36.5,26.2,30.05,South,185,0.0,0.0,66,0.00,,,0.00,Wunderground v.1.15,2013-03-12 08:25:00,
2013-03-12 04:30:00,36.1,25.8,30.05,South,185,0.0,0.0,66,0.00,,,0.00,Wunderground v.1.15,2013-03-12 08:30:00,
2013-03-12 04:35:00,36.0,26.5,30.05,South,185,0.0,0.0,68,0.00,,,0.00,Wunderground v.1.15,2013-03-12 08:35:00,
2013-03-12 04:40:00,36.0,26.5,30.05,South,185,0.0,0.0,68,0.00,,,0.00,Wunderground v.1.15,2013-03-12 08:40:00,
2013-03-12 04:45:00,36.1,26.6,30.05,South,185,0.0,0.0,68,0.00,,,0.00,Wunderground v.1.15,2013-03-12 08:45:00,
2013-03-12 04:50:00,36.1,26.6,30.05,South,185,0.0,0.0,68,0.00,,,0.00,Wunderground v.1.15,2013-03-12 08:50:00,
2013-03-12 04:55:00,35.8,26.6,30.05,South,184,2.0,5.0,69,0.00,,,0.00,Wunderground v.1.15,2013-03-12 08:55:00,
2013-03-12 05:00:00,35.8,26.3,30.05,South,187,4.0,6.0,68,0.00,,,0.00,Wunderground v.1.15,2013-03-12 09:00:00,
2013-03-12 05:10:00,35.9,26.0,30.05,South,188,6.0,6.0,67,0.00,,,0.00,Wunderground v.1.15,2013-03-12 09:10:00,
2013-03-12 05:15:00,35.8,25.9,30.05,SSW,199,5.0,6.0,67,0.00,,,0.00,Wunderground v.1.15,2013-03-12 09:15:00,
2013-03-12 05:20:00,35.6,25.7,30.05,SSW,200,5.0,5.0,67,0.00,,,0.00,Wunderground v.1.15,2013-03-12 09:20:00,
2013-03-12 05:25:00,35.2,25.7,30.05,SSW,201,4.0,5.0,68,0.00,,,0.00,Wunderground v.1.15,2013-03-12 09:25:00,
2013-03-12 05:30:00,34.9,25.4,30.05,SSW,201,5.0,5.0,68,0.00,,,0.00,Wunderground v.1.15,2013-03-12 09:30:00,
2013-03-12 05:35:00,34.8,25.3,30.05,SSW,201,4.0,5.0,68,0.00,,,0.00,Wunderground v.1.15,2013-03-12 09:35:00,
2013-03-12 05:40:00,34.6,25.5,30.05,SSW,201,4.0,4.0,69,0.00,,,0.00,Wunderground v.1.15,2013-03-12 09:40:00,
2013-03-12 05:45:00,34.3,25.9,30.05,SSW,198,4.0,4.0,71,0.00,,,0.00,Wunderground v.1.15,2013-03-12 09:45:00,
2013-03-12 05:50:00,34.3,25.9,30.05,SSW,198,4.0,4.0,71,0.00,,,0.00,Wunderground v.1.15,2013-03-12 09:50:00,
2013-03-12 05:55:00,34.1,25.7,30.05,SSW,197,4.0,4.0,71,0.00,,,0.00,Wunderground v.1.15,2013-03-12 09:55:00,
2013-03-12 06:00:00,34.1,25.7,30.05,SSW,197,3.0,4.0,71,0.00,,,0.00,Wunderground v.1.15,2013-03-12 10:00:00,
2013-03-12 06:10:00,34.1,25.3,30.05,SSW,201,3.0,3.0,70,0.00,,,0.00,Wunderground v.1.15,2013-03-12 10:10:00,
2013-03-12 06:20:00,33.4,25.0,30.05,SSW,198,3.0,3.0,71,0.00,,,0.00,Wunderground v.1.15,2013-03-12 10:20:00,
2013-03-12 06:25:00,33.4,25.0,30.05,SSW,197,3.0,4.0,71,0.00,,,0.00,Wunderground v.1.15,2013-03-12 10:25:00,
2013-03-12 06:30:00,33.4,25.3,30.05,SSW,196,3.0,4.0,72,0.00,,,0.00,Wunderground v.1.15,2013-03-12 10:30:00,
2013-03-12 06:35:00,33.3,25.2,30.05,SSW,196,3.0,4.0,72,0.00,,,0.00,Wunderground v.1.15,2013-03-12 10:35:00,
2013-03-12 06:40:00,33.6,25.5,30.05,SSW,196,3.0,4.0,72,0.00,,,0.00,Wunderground v.1.15,2013-03-12 10:40:00,
2013-03-12 06:45:00,34.1,26.0,30.05,SSW,195,3.0,5.0,72,0.00,,,0.00,Wunderground v.1.15,2013-03-12 10:45:00,
2013-03-12 06:55:00,34.6,25.8,30.05,SSW,195,3.0,5.0,70,0.00,,,0.00,Wunderground v.1.15,2013-03-12 10:55:00,
2013-03-12 07:00:00,34.5,25.4,30.05,SSW,195,4.0,4.0,69,0.00,,,0.00,Wunderground v.1.15,2013-03-12 11:00:00,
2013-03-12 07:10:00,34.2,25.1,30.05,SSW,195,2.0,2.0,69,0.00,,,0.00,Wunderground v.1.15,2013-03-12 11:10:00,
2013-03-12 07:15:00,33.9,25.1,30.05,SSW,195,1.0,3.0,70,0.00,,,0.00,Wunderground v.1.15,2013-03-12 11:15:00,
2013-03-12 07:20:00,33.9,25.1,30.05,SSW,195,2.0,2.0,70,0.00,,,0.00,Wunderground v.1.15,2013-03-12 11:20:00,
2013-03-12 07:25:00,33.5,24.8,30.05,SSW,195,1.0,2.0,70,0.00,,,0.00,Wunderground v.1.15,2013-03-12 11:25:00,
2013-03-12 07:30:00,33.4,25.3,30.05,SSW,195,0.0,0.0,72,0.00,,,0.00,Wunderground v.1.15,2013-03-12 11:30:00,
2013-03-12 07:35:00,33.3,25.2,30.05,SSW,195,0.0,0.0,72,0.00,,,0.00,Wunderground v.1.15,2013-03-12 11:35:00,
2013-03-12 07:40:00,33.1,25.4,30.05,SSW,195,0.0,2.0,73,0.00,,,0.00,Wunderground v.1.15,2013-03-12 11:40:00,
2013-03-12 07:45:00,32.5,25.1,30.05,SSW,195,1.0,2.0,74,0.00,,,0.00,Wunderground v.1.15,2013-03-12 11:45:00,
2013-03-12 07:55:00,31.9,24.9,30.05,SSW,194,2.0,2.0,75,0.00,,,0.00,Wunderground v.1.15,2013-03-12 11:55:00,
2013-03-12 08:00:00,31.7,24.7,30.05,SSW,194,1.0,1.0,75,0.00,,,0.00,Wunderground v.1.15,2013-03-12 12:00:00,
2013-03-12 08:10:00,31.1,24.7,30.05,SSW,194,0.0,0.0,77,0.00,,,0.00,Wunderground v.1.15,2013-03-12 12:10:00,
2013-03-12 08:15:00,31.0,24.6,30.05,SSW,194,0.0,3.0,77,0.00,,,0.00,Wunderground v.1.15,2013-03-12 12:15:00,
2013-03-12 08:20:00,31.0,24.6,30.05,SSW,194,2.0,4.0,77,0.00,,,0.00,Wunderground v.1.15,2013-03-12 12:20:00,
2013-03-12 08:25:00,31.0,24.9,30.05,SSW,194,4.0,4.0,78,0.00,,,0.00,Wunderground v.1.15,2013-03-12 12:25:00,
2013-03-12 08:30:00,31.0,24.9,30.05,SSW,195,4.0,4.0,78,0.00,,,0.00,Wunderground v.1.15,2013-03-12 12:30:00,
2013-03-12 08:35:00,31.0,24.9,30.05,SSW,194,3.0,4.0,78,0.00,,,0.00,Wunderground v.1.15,2013-03-12 12:35:00,
2013-03-12 08:40:00,31.1,25.0,30.05,South,188,3.0,3.0,78,0.00,,,0.00,Wunderground v.1.15,2013-03-12 12:40:00,
2013-03-12 08:45:00,31.4,25.3,30.05,South,181,4.0,4.0,78,0.00,,,0.00,Wunderground v.1.15,2013-03-12 12:45:00,
2013-03-12 08:50:00,31.8,25.7,30.05,South,173,3.0,3.0,78,0.00,,,0.00,Wunderground v.1.15,2013-03-12 12:50:00,
2013-03-12 08:55:00,32.6,25.9,30.05,South,172,2.0,3.0,76,0.00,,,0.00,Wunderground v.1.15,2013-03-12 12:55:00,
2013-03-12 09:00:00,33.0,25.9,30.05,South,171,0.0,0.0,75,0.00,,,0.00,Wunderground v.1.15,2013-03-12 13:00:00,
2013-03-12 09:10:00,32.9,25.8,30.05,SSE,167,0.0,0.0,75,0.00,,,0.00,Wunderground v.1.15,2013-03-12 13:10:00,
2013-03-12 09:15:00,32.6,25.9,30.05,South,169,0.0,1.0,76,0.00,,,0.00,Wunderground v.1.15,2013-03-12 13:15:00,
2013-03-12 09:20:00,32.5,26.1,30.05,South,173,1.0,1.0,77,0.00,,,0.00,Wunderground v.1.15,2013-03-12 13:20:00,
2013-03-12 09:25:00,32.4,26.0,30.05,SSE,167,1.0,1.0,77,0.00,,,0.00,Wunderground v.1.15,2013-03-12 13:25:00,
2013-03-12 09:30:00,32.3,25.9,30.05,SSE,167,0.0,0.0,77,0.00,,,0.00,Wunderground v.1.15,2013-03-12 13:30:00,
2013-03-12 09:35:00,32.7,26.3,30.05,SSE,167,0.0,0.0,77,0.00,,,0.00,Wunderground v.1.15,2013-03-12 13:35:00,
2013-03-12 09:45:00,33.2,26.5,30.05,South,173,1.0,3.0,76,0.00,,,0.00,Wunderground v.1.15,2013-03-12 13:45:00,
2013-03-12 09:50:00,33.8,26.7,30.05,South,173,1.0,1.0,75,0.00,,,0.00,Wunderground v.1.15,2013-03-12 13:50:00,
2013-03-12 09:55:00,34.5,26.7,30.05,South,173,1.0,3.0,73,0.00,,,0.00,Wunderground v.1.15,2013-03-12 13:55:00,
2013-03-12 10:00:00,34.8,27.4,30.05,South,173,3.0,3.0,74,0.00,,,0.00,Wunderground v.1.15,2013-03-12 14:00:00,
2013-03-12 10:10:00,35.9,28.1,30.05,South,173,2.0,2.0,73,0.00,,,0.00,Wunderground v.1.15,2013-03-12 14:10:00,
2013-03-12 10:15:00,36.7,29.2,30.05,South,173,1.0,2.0,74,0.00,,,0.00,Wunderground v.1.15,2013-03-12 14:15:00,
2013-03-12 10:20:00,37.5,29.6,30.05,South,180,0.0,1.0,73,0.00,,,0.00,Wunderground v.1.15,2013-03-12 14:20:00,
2013-03-12 10:25:00,38.5,29.9,30.05,West,281,1.0,1.0,71,0.00,,,0.00,Wunderground v.1.15,2013-03-12 14:25:00,
2013-03-12 10:30:00,39.1,29.8,30.05,WNW,300,1.0,1.0,69,0.00,,,0.00,Wunderground v.1.15,2013-03-12 14:30:00,
2013-03-12 10:35:00,39.7,30.4,30.05,WNW,300,1.0,1.0,69,0.00,,,0.00,Wunderground v.1.15,2013-03-12 14:35:00,
2013-03-12 10:40:00,40.4,30.7,30.05,WNW,300,0.0,0.0,68,0.00,,,0.00,Wunderground v.1.15,2013-03-12 14:40:00,
2013-03-12 10:50:00,42.3,32.1,30.05,WNW,300,0.0,0.0,67,0.00,,,0.00,Wunderground v.1.15,2013-03-12 14:50:00,
2013-03-12 10:55:00,42.6,30.5,30.05,WNW,300,0.0,0.0,62,0.00,,,0.00,Wunderground v.1.15,2013-03-12 14:55:00,
2013-03-12 11:00:00,43.0,30.9,30.05,WNW,300,0.0,0.0,62,0.00,,,0.00,Wunderground v.1.15,2013-03-12 15:00:00,
2013-03-12 11:10:00,44.3,31.3,30.05,WNW,300,0.0,0.0,60,0.00,,,0.00,Wunderground v.1.15,2013-03-12 15:10:00,
2013-03-12 11:15:00,45.0,31.9,30.05,WNW,300,0.0,0.0,60,0.00,,,0.00,Wunderground v.1.15,2013-03-12 15:15:00,
2013-03-12 11:25:00,45.6,32.1,30.05,WNW,300,0.0,0.0,59,0.00,,,0.00,Wunderground v.1.15,2013-03-12 15:25:00,
2013-03-12 11:30:00,46.2,32.2,30.05,WNW,300,0.0,0.0,58,0.00,,,0.00,Wunderground v.1.15,2013-03-12 15:30:00,
2013-03-12 11:35:00,46.9,32.9,30.05,WNW,300,0.0,0.0,58,0.00,,,0.00,Wunderground v.1.15,2013-03-12 15:35:00,
2013-03-12 11:40:00,47.4,32.9,30.05,WNW,300,0.0,0.0,57,0.00,,,0.00,Wunderground v.1.15,2013-03-12 15:40:00,
2013-03-12 11:45:00,48.1,33.1,30.05,WNW,300,0.0,0.0,56,0.00,,,0.00,Wunderground v.1.15,2013-03-12 15:45:00,
2013-03-12 11:50:00,49.1,33.2,30.05,WNW,300,0.0,0.0,54,0.00,,,0.00,Wunderground v.1.15,2013-03-12 15:50:00,
2013-03-12 12:00:00,50.2,33.7,30.05,NW,312,1.0,3.0,53,0.00,,,0.00,Wunderground v.1.15,2013-03-12 16:00:00,
2013-03-12 12:10:00,50.6,31.6,30.05,NW,313,2.0,2.0,48,0.00,,,0.00,Wunderground v.1.15,2013-03-12 16:10:00,
2013-03-12 12:15:00,50.8,31.3,30.05,NW,321,2.0,2.0,47,0.00,,,0.00,Wunderground v.1.15,2013-03-12 16:15:00,
2013-03-12 12:20:00,51.2,32.2,30.05,NNW,327,1.0,3.0,48,0.00,,,0.00,Wunderground v.1.15,2013-03-12 16:20:00,
2013-03-12 12:25:00,51.7,31.6,30.05,NNW,328,1.0,3.0,46,0.00,,,0.00,Wunderground v.1.15,2013-03-12 16:25:00,
2013-03-12 12:35:00,52.8,30.3,30.05,NNW,328,1.0,2.0,42,0.00,,,0.00,Wunderground v.1.15,2013-03-12 16:35:00,
2013-03-12 12:40:00,53.2,30.7,30.05,NNW,328,0.0,0.0,42,0.00,,,0.00,Wunderground v.1.15,2013-03-12 16:40:00,
2013-03-12 12:45:00,53.7,31.1,30.05,NNW,328,0.0,0.0,42,0.00,,,0.00,Wunderground v.1.15,2013-03-12 16:45:00,
2013-03-12 12:50:00,54.4,30.6,30.05,NNW,328,0.0,0.0,40,0.00,,,0.00,Wunderground v.1.15,2013-03-12 16:50:00,
2013-03-12 12:55:00,55.1,31.8,30.05,NNW,328,0.0,2.0,41,0.00,,,0.00,Wunderground v.1.15,2013-03-12 16:55:00,
2013-03-12 13:00:00,56.0,32.0,30.05,NNW,329,1.0,2.0,40,0.00,,,0.00,Wunderground v.1.15,2013-03-12 17:00:00,
2013-03-12 13:10:00,56.6,31.3,30.05,NNW,329,2.0,2.0,38,0.00,,,0.00,Wunderground v.1.15,2013-03-12 17:10:00,
2013-03-12 13:15:00,57.0,31.0,30.05,NNW,329,1.0,2.0,37,0.00,,,0.00,Wunderground v.1.15,2013-03-12 17:15:00,
2013-03-12 13:20:00,57.8,31.7,30.05,NNW,329,0.0,2.0,37,0.00,,,0.00,Wunderground v.1.15,2013-03-12 17:20:00,
2013-03-12 13:25:00,58.3,31.4,30.05,NNW,329,0.0,2.0,36,0.00,,,0.00,Wunderground v.1.15,2013-03-12 17:25:00,
2013-03-12 13:30:00,58.9,30.6,30.05,NNW,329,1.0,1.0,34,0.00,,,0.00,Wunderground v.1.15,2013-03-12 17:30:00,
2013-03-12 13:35:00,59.3,30.2,30.05,NNW,329,1.0,1.0,33,0.00,,,0.00,Wunderground v.1.15,2013-03-12 17:35:00,
2013-03-12 13:40:00,59.9,29.9,30.05,NNW,329,1.0,1.0,32,0.00,,,0.00,Wunderground v.1.15,2013-03-12 17:40:00,
2013-03-12 13:45:00,60.5,28.9,30.05,North,9,1.0,2.0,30,0.00,,,0.00,Wunderground v.1.15,2013-03-12 17:45:00,
2013-03-12 13:55:00,61.4,28.8,30.05,NNE,17,2.0,3.0,29,0.00,,,0.00,Wunderground v.1.15,2013-03-12 17:55:00,
2013-03-12 14:00:00,61.5,28.9,30.11,NNE,26,2.0,6.0,29,0.00,,,0.00,Wunderground v.1.15,2013-03-12 18:00:00,
2013-03-12 14:10:00,62.3,28.7,30.11,NE,36,2.0,2.0,28,0.00,,,0.00,Wunderground v.1.15,2013-03-12 18:10:00,
2013-03-12 14:15:00,62.8,28.3,30.11,North,5,1.0,2.0,27,0.00,,,0.00,Wunderground v.1.15,2013-03-12 18:15:00,
2013-03-12 14:20:00,63.0,28.5,30.11,NNW,346,2.0,4.0,27,0.00,,,0.00,Wunderground v.1.15,2013-03-12 18:20:00,
2013-03-12 14:25:00,63.1,28.5,30.11,North,10,3.0,4.0,27,0.00,,,0.00,Wunderground v.1.15,2013-03-12 18:25:00,
2013-03-12 14:30:00,63.4,27.9,30.11,NNE,18,3.0,3.0,26,0.00,,,0.00,Wunderground v.1.15,2013-03-12 18:30:00,
2013-03-12 14:35:00,63.9,29.2,30.11,NNE,33,2.0,5.0,27,0.00,,,0.00,Wunderground v.1.15,2013-03-12 18:35:00,
2013-03-12 14:40:00,64.4,27.8,30.10,NE,38,2.0,2.0,25,0.00,,,0.00,Wunderground v.1.15,2013-03-12 18:40:00,
2013-03-12 14:50:00,64.8,26.1,30.11,NNE,20,2.0,2.0,23,0.00,,,0.00,Wunderground v.1.15,2013-03-12 18:50:00,
2013-03-12 14:55:00,64.9,27.2,30.10,NNE,19,1.0,2.0,24,0.00,,,0.00,Wunderground v.1.15,2013-03-12 18:55:00,
2013-03-12 15:00:00,65.4,25.5,30.10,NNE,29,1.0,2.0,22,0.00,,,0.00,Wunderground v.1.15,2013-03-12 19:00:00,
2013-03-12 15:10:00,66.5,26.4,30.10,NNE,33,1.0,4.0,22,0.00,,,0.00,Wunderground v.1.15,2013-03-12 19:10:00,
2013-03-12 15:15:00,67.0,23.3,30.10,NE,40,2.0,5.0,19,0.00,,,0.00,Wunderground v.1.15,2013-03-12 19:15:00,
2013-03-12 15:20:00,67.1,24.6,30.10,North,360,3.0,3.0,20,0.00,,,0.00,Wunderground v.1.15,2013-03-12 19:20:00,
2013-03-12 15:25:00,67.0,23.3,30.10,North,355,2.0,3.0,19,0.00,,,0.00,Wunderground v.1.15,2013-03-12 19:25:00,
2013-03-12 15:30:00,66.9,23.3,30.10,North,355,2.0,2.0,19,0.00,,,0.00,Wunderground v.1.15,2013-03-12 19:30:00,
2013-03-12 15:35:00,67.5,25.0,30.10,NNW,348,0.0,3.0,20,0.00,,,0.00,Wunderground v.1.15,2013-03-12 19:35:00,
2013-03-12 15:40:00,68.1,24.2,30.10,East,89,3.0,7.0,19,0.00,,,0.00,Wunderground v.1.15,2013-03-12 19:40:00,
2013-03-12 15:45:00,68.3,23.1,30.10,NNW,342,4.0,7.0,18,0.00,,,0.00,Wunderground v.1.15,2013-03-12 19:45:00,
2013-03-12 15:50:00,68.0,22.9,30.10,WNW,296,2.0,3.0,18,0.00,,,0.00,Wunderground v.1.15,2013-03-12 19:50:00,
2013-03-12 15:55:00,68.4,24.5,30.10,North,5,2.0,4.0,19,0.00,,,0.00,Wunderground v.1.15,2013-03-12 19:55:00,
2013-03-12 16:00:00,68.4,20.4,30.10,WNW,294,2.0,3.0,16,0.00,,,0.00,Wunderground v.1.15,2013-03-12 20:00:00,
2013-03-12 16:10:00,68.7,19.1,30.10,NW,310,3.0,3.0,15,0.00,,,0.00,Wunderground v.1.15,2013-03-12 20:10:00,
2013-03-12 16:15:00,69.0,20.9,30.10,North,355,1.0,3.0,16,0.00,,,0.00,Wunderground v.1.15,2013-03-12 20:15:00,
2013-03-12 16:20:00,69.6,21.4,30.10,ENE,59,2.0,2.0,16,0.00,,,0.00,Wunderground v.1.15,2013-03-12 20:20:00,
2013-03-12 16:25:00,69.6,21.4,30.10,North,355,3.0,5.0,16,0.00,,,0.00,Wunderground v.1.15,2013-03-12 20:25:00,
2013-03-12 16:30:00,69.4,19.7,30.10,NNE,19,3.0,3.0,15,0.00,,,0.00,Wunderground v.1.15,2013-03-12 20:30:00,
2013-03-12 16:35:00,69.3,19.6,30.10,NNE,22,2.0,7.0,15,0.00,,,0.00,Wunderground v.1.15,2013-03-12 20:35:00,
2013-03-12 16:40:00,69.4,19.7,30.10,NNE,25,2.0,2.0,15,0.00,,,0.00,Wunderground v.1.15,2013-03-12 20:40:00,
2013-03-12 16:45:00,69.9,20.1,30.10,NNE,25,1.0,2.0,15,0.00,,,0.00,Wunderground v.1.15,2013-03-12 20:45:00,
2013-03-12 16:50:00,70.3,20.4,30.10,NW,310,1.0,3.0,15,0.00,,,0.00,Wunderground v.1.15,2013-03-12 20:50:00,
2013-03-12 17:00:00,70.2,20.3,30.10,NW,309,3.0,4.0,15,0.00,,,0.00,Wunderground v.1.15,2013-03-12 21:00:00,
2013-03-12 17:10:00,70.6,19.0,30.10,West,278,1.0,4.0,14,0.00,,,0.00,Wunderground v.1.15,2013-03-12 21:10:00,
2013-03-12 17:15:00,70.5,17.2,30.10,WSW,257,1.0,4.0,13,0.00,,,0.00,Wunderground v.1.15,2013-03-12 21:15:00,
2013-03-12 17:20:00,71.1,17.7,30.10,SW,224,1.0,4.0,13,0.00,,,0.00,Wunderground v.1.15,2013-03-12 21:20:00,
2013-03-12 17:25:00,71.1,15.9,30.10,West,279,2.0,4.0,12,0.00,,,0.00,Wunderground v.1.15,2013-03-12 21:25:00,
2013-03-12 17:30:00,71.1,17.7,30.10,WNW,288,2.0,2.0,13,0.00,,,0.00,Wunderground v.1.15,2013-03-12 21:30:00,
2013-03-12 17:40:00,71.3,16.0,30.10,WNW,296,1.0,4.0,12,0.00,,,0.00,Wunderground v.1.15,2013-03-12 21:40:00,
2013-03-12 17:45:00,71.6,16.2,30.10,West,276,1.0,4.0,12,0.00,,,0.00,Wunderground v.1.15,2013-03-12 21:45:00,
2013-03-12 17:50:00,72.0,18.4,30.10,NW,309,1.0,3.0,13,0.00,,,0.00,Wunderground v.1.15,2013-03-12 21:50:00,
2013-03-12 17:55:00,72.1,16.6,30.10,NNE,13,1.0,3.0,12,0.00,,,0.00,Wunderground v.1.15,2013-03-12 21:55:00,
2013-03-12 18:00:00,72.4,16.9,30.10,NNW,348,1.0,3.0,12,0.00,,,0.00,Wunderground v.1.15,2013-03-12 22:00:00,
2013-03-12 18:10:00,72.1,16.6,30.10,North,355,1.0,1.0,12,0.00,,,0.00,Wunderground v.1.15,2013-03-12 22:10:00,
2013-03-12 18:15:00,72.6,15.0,30.10,NNE,17,1.0,2.0,11,0.00,,,0.00,Wunderground v.1.15,2013-03-12 22:15:00,
2013-03-12 18:20:00,72.9,17.3,30.10,NNE,13,2.0,2.0,12,0.00,,,0.00,Wunderground v.1.15,2013-03-12 22:20:00,
2013-03-12 18:25:00,72.5,16.9,30.10,NW,315,1.0,2.0,12,0.00,,,0.00,Wunderground v.1.15,2013-03-12 22:25:00,
2013-03-12 18:30:00,72.7,17.1,30.10,NW,311,2.0,2.0,12,0.00,,,0.00,Wunderground v.1.15,2013-03-12 22:30:00,
2013-03-12 18:35:00,72.9,17.3,30.10,NW,304,2.0,2.0,12,0.00,,,0.00,Wunderground v.1.15,2013-03-12 22:35:00,
2013-03-12 18:40:00,73.0,19.2,30.10,NW,306,1.0,1.0,13,0.00,,,0.00,Wunderground v.1.15,2013-03-12 22:40:00,
2013-03-12 18:45:00,73.3,17.6,30.10,NW,306,0.0,1.0,12,0.00,,,0.00,Wunderground v.1.15,2013-03-12 22:45:00,
2013-03-12 18:55:00,73.5,15.7,30.10,ENE,61,1.0,5.0,11,0.00,,,0.00,Wunderground v.1.15,2013-03-12 22:55:00,
2013-03-12 19:00:00,74.1,18.2,30.10,ENE,61,1.0,1.0,12,0.00,,,0.00,Wunderground v.1.15,2013-03-12 23:00:00,
2013-03-12 19:10:00,73.9,16.0,30.10,WNW,298,1.0,2.0,11,0.00,,,0.00,Wunderground v.1.15,2013-03-12 23:10:00,
2013-03-12 19:15:00,73.7,15.9,30.10,WSW,253,2.0,2.0,11,0.00,,,0.00,Wunderground v.1.15,2013-03-12 23:15:00,
2013-03-12 19:20:00,73.9,16.0,30.10,South,188,2.0,2.0,11,0.00,,,0.00,Wunderground v.1.15,2013-03-12 23:20:00,
2013-03-12 19:25:00,74.0,16.1,30.10,South,188,1.0,2.0,11,0.00,,,0.00,Wunderground v.1.15,2013-03-12 23:25:00,
2013-03-12 19:30:00,74.5,14.3,30.10,South,188,0.0,0.0,10,0.00,,,0.00,Wunderground v.1.15,2013-03-12 23:30:00,
2013-03-12 19:35:00,75.0,16.9,30.10,South,188,0.0,0.0,11,0.00,,,0.00,Wunderground v.1.15,2013-03-12 23:35:00,
2013-03-12 19:40:00,74.9,14.6,30.10,ENE,71,0.0,1.0,10,0.00,,,0.00,Wunderground v.1.15,2013-03-12 23:40:00,
2013-03-12 19:45:00,74.2,16.3,30.10,ENE,70,3.0,3.0,11,0.00,,,0.00,Wunderground v.1.15,2013-03-12 23:45:00,
2013-03-12 19:50:00,73.6,15.8,30.10,ENE,65,4.0,4.0,11,0.00,,,0.00,Wunderground v.1.15,2013-03-12 23:50:00,
2013-03-12 20:00:00,73.0,15.3,30.10,NNE,12,2.0,2.0,11,0.00,,,0.00,Wunderground v.1.15,2013-03-13 00:00:00,
2013-03-12 20:10:00,73.4,15.6,30.10,West,281,0.0,0.0,11,0.00,,,0.00,Wunderground v.1.15,2013-03-13 00:10:00,
2013-03-12 20:15:00,73.9,13.8,30.01,West,281,0.0,0.0,10,0.00,,,0.00,Wunderground v.1.15,2013-03-13 00:15:00,
2013-03-12 20:20:00,74.4,14.2,30.01,West,281,0.0,0.0,10,0.00,,,0.00,Wunderground v.1.15,2013-03-13 00:20:00,
2013-03-12 20:30:00,73.3,17.6,30.01,West,281,1.0,1.0,12,0.00,,,0.00,Wunderground v.1.15,2013-03-13 00:30:00,
2013-03-12 20:35:00,72.4,22.1,30.01,WNW,282,1.0,1.0,15,0.00,,,0.00,Wunderground v.1.15,2013-03-13 00:35:00,
2013-03-12 20:40:00,71.9,28.6,30.01,WNW,282,1.0,1.0,20,0.00,,,0.00,Wunderground v.1.15,2013-03-13 00:40:00,
2013-03-12 20:50:00,71.7,24.5,30.01,WNW,282,0.0,0.0,17,0.00,,,0.00,Wunderground v.1.15,2013-03-13 00:50:00,
2013-03-12 20:55:00,71.7,24.5,30.01,WNW,282,0.0,0.0,17,0.00,,,0.00,Wunderground v.1.15,2013-03-13 00:55:00,
2013-03-12 21:00:00,71.5,18.0,30.01,WNW,282,0.0,0.0,13,0.00,,,0.00,Wunderground v.1.15,2013-03-13 01:00:00,
2013-03-12 21:10:00,70.5,15.4,30.01,WNW,282,0.0,0.0,12,0.00,,,0.00,Wunderground v.1.15,2013-03-13 01:10:00,
2013-03-12 21:15:00,69.9,14.9,30.01,WNW,282,0.0,0.0,12,0.00,,,0.00,Wunderground v.1.15,2013-03-13 01:15:00,
2013-03-12 21:20:00,69.3,14.4,30.01,WNW,282,0.0,0.0,12,0.00,,,0.00,Wunderground v.1.15,2013-03-13 01:20:00,
2013-03-12 21:25:00,68.5,17.4,30.01,WNW,282,0.0,0.0,14,0.00,,,0.00,Wunderground v.1.15,2013-03-13 01:25:00,
2013-03-12 21:30:00,66.3,21.5,30.01,SSW,209,2.0,6.0,18,0.00,,,0.00,Wunderground v.1.15,2013-03-13 01:30:00,
2013-03-12 21:35:00,62.9,21.2,30.01,SSW,209,5.0,6.0,20,0.00,,,0.00,Wunderground v.1.15,2013-03-13 01:35:00,
2013-03-12 21:40:00,60.5,22.5,30.01,SSW,208,6.0,6.0,23,0.00,,,0.00,Wunderground v.1.15,2013-03-13 01:40:00,
2013-03-12 21:50:00,57.2,23.5,30.01,SSW,209,5.0,6.0,27,0.00,,,0.00,Wunderground v.1.15,2013-03-13 01:50:00,
2013-03-12 21:55:00,56.0,23.3,30.01,SSW,210,6.0,6.0,28,0.00,,,0.00,Wunderground v.1.15,2013-03-13 01:55:00,
2013-03-12 22:00:00,55.2,23.5,30.01,SSW,208,6.0,6.0,29,0.00,,,0.00,Wunderground v.1.15,2013-03-13 02:00:00,
2013-03-12 22:10:00,54.5,23.7,30.01,SSW,203,6.0,6.0,30,0.00,,,0.00,Wunderground v.1.15,2013-03-13 02:10:00,
2013-03-12 22:15:00,54.0,24.0,30.01,SSW,202,6.0,6.0,31,0.00,,,0.00,Wunderground v.1.15,2013-03-13 02:15:00,
2013-03-12 22:20:00,53.9,23.9,30.01,SSW,202,6.0,6.0,31,0.00,,,0.00,Wunderground v.1.15,2013-03-13 02:20:00,
2013-03-12 22:25:00,53.7,23.7,30.01,SSW,202,6.0,6.0,31,0.00,,,0.00,Wunderground v.1.15,2013-03-13 02:25:00,
2013-03-12 22:30:00,53.3,23.4,30.01,SSW,202,6.0,6.0,31,0.00,,,0.00,Wunderground v.1.15,2013-03-13 02:30:00,
2013-03-12 22:35:00,52.8,23.7,30.01,SSW,202,6.0,6.0,32,0.00,,,0.00,Wunderground v.1.15,2013-03-13 02:35:00,
2013-03-12 22:40:00,52.5,23.5,30.01,SSW,204,6.0,6.0,32,0.00,,,0.00,Wunderground v.1.15,2013-03-13 02:40:00,
2013-03-12 22:45:00,52.2,23.2,30.01,SSW,204,5.0,6.0,32,0.00,,,0.00,Wunderground v.1.15,2013-03-13 02:45:00,
2013-03-12 22:50:00,51.8,23.6,30.01,SSW,204,5.0,5.0,33,0.00,,,0.00,Wunderground v.1.15,2013-03-13 02:50:00,
2013-03-12 22:55:00,51.2,23.8,30.01,SSW,213,5.0,5.0,34,0.00,,,0.00,Wunderground v.1.15,2013-03-13 02:55:00,
2013-03-12 23:00:00,50.9,23.5,30.01,SSW,213,5.0,5.0,34,0.00,,,0.00,Wunderground v.1.15,2013-03-13 03:00:00,
2013-03-12 23:10:00,50.7,24.0,30.01,SSW,200,5.0,6.0,35,0.00,,,0.00,Wunderground v.1.15,2013-03-13 03:10:00,
2013-03-12 23:15:00,51.0,23.6,30.01,SSW,207,6.0,7.0,34,0.00,,,0.00,Wunderground v.1.15,2013-03-13 03:15:00,
2013-03-12 23:20:00,51.5,23.3,30.01,SSW,205,7.0,7.0,33,0.00,,,0.00,Wunderground v.1.15,2013-03-13 03:20:00,
2013-03-12 23:25:00,51.0,23.6,30.01,SSW,201,7.0,7.0,34,0.00,,,0.00,Wunderground v.1.15,2013-03-13 03:25:00,
2013-03-12 23:30:00,50.3,23.7,30.01,SSW,198,7.0,7.0,35,0.00,,,0.00,Wunderground v.1.15,2013-03-13 03:30:00,
2013-03-12 23:35:00,50.2,23.6,30.01,SSW,200,7.0,7.0,35,0.00,,,0.00,Wunderground v.1.15,2013-03-13 03:35:00,
2013-03-12 23:40:00,50.6,23.2,30.01,SSW,203,7.0,7.0,34,0.00,,,0.00,Wunderground v.1.15,2013-03-13 03:40:00,
2013-03-12 23:45:00,51.0,23.6,30.01,SSW,208,6.0,7.0,34,0.00,,,0.00,Wunderground v.1.15,2013-03-13 03:45:00,
2013-03-12 23:50:00,51.0,23.6,30.01,SSW,208,6.0,6.0,34,0.00,,,0.00,Wunderground v.1.15,2013-03-13 03:50:00,
2013-03-12 23:55:00,50.6,23.2,30.01,SSW,208,5.0,6.0,34,0.00,,,0.00,Wunderground v.1.15,2013-03-13 03:55:00,